Torna al catalogo

STARLINK-35857

AttivoComunicazioniVLEO
NORAD 67186·PAYLOAD·🇺🇸 United States

Lanciato Dec 17, 2025 da Cape Canaveral Space Force Station

Loading…

Prossimi Passaggi (prossime 24 ore)

TLE

AggiornatoSource: CelesTrak SupGP

Epoca: Sep 14, 2026, 14:39 UTC

1 67186C 25303Z   26257.61090278  .00072081  00000+0  26103-2 0  2574
2 67186  43.0033 323.6529 0001399 280.5390 299.1750 15.27548530    16

Traccia STARLINK-35857 in tempo reale con AllMySat

Download on the App Store